Location: Forst
(46.9333°N, 15.4333°E)
Time: 15:31:37
(UTC+00:00)

H-2A R/B - Pass Details

Date: 01 December 2020
Orbit: 578 x 654 km, 98.5° (Epoch: 27 January)

Event Time Altitude Azimuth Distance (km) Brightness Sun altitude
Rises 16:14:52 0° 14° (NNE) 2,846 5.1 -10.5°
Reaches altitude 10° 16:17:01 10° 15° (NNE) 1,950 4.3 -10.9°
Maximum altitude 16:21:15 89° 110° (ESE) 616 2.0 -11.6°
Drops below altitude 10° 16:25:34 10° 195° (SSW) 1,981 5.1 -12.3°
Sets 16:27:46 0° 196° (SSW) 2,895 6.0 -12.6°
